"Sample Date","Sample Time","Sensor Name","Sample Value","Units","Flow Rate","Sample Interval","Sample Volume","Laser Status","Number Channels","Micron Size 0","Counts/Channel 0","Micron Size 1","Counts/Channel 1","Micron Size 2","Counts/Channel 2","Micron Size 3","Counts/Channel 3","Micron Size 4","Counts/Channel 4","Micron Size 5","Counts/Channel 5","Micron Size 6","Counts/Channel 6","Micron Size 7","Counts/Channel 7","Micron Size 8","Counts/Channel 8","Micron Size 9","Counts/Channel 9","Micron Size 10","Counts/Channel 10","Micron Size 11","Counts/Channel 11","Micron Size 12","Counts/Channel 12","Micron Size 13","Counts/Channel 13","Micron Size 14","Counts/Channel 14","Micron Size 15","Counts/Channel 15","Micron Size 16","Counts/Channel 16","Micron Size 17","Counts/Channel 17","Micron Size 18","Counts/Channel 18","Micron Size 19","Counts/Channel 19","Micron Size 20","Counts/Channel 20","Micron Size 21","Counts/Channel 21","Micron Size 22","Counts/Channel 22","Micron Size 23","Counts/Channel 23","Micron Size 24","Counts/Channel 24","Micron Size 25","Counts/Channel 25","Micron Size 26","Counts/Channel 26","Micron Size 27","Counts/Channel 27","Micron Size 28","Counts/Channel 28","Micron Size 29","Counts/Channel 29","Micron Size 30","Counts/Channel 30","Micron Size 31","Counts/Channel 31"
"07/10/06","08:00:02","AMMA06",41027.000,"cc",28287.895,6.00,2828.790,1,6,0.100,21578.000,0.200,16614.000,0.300,2651.000,0.500,131.000,1.000,53.000,5.000,0
"07/10/06","08:00:08","AMMA06",40650.000,"cc",28326.141,6.00,2832.614,1,6,0.100,21242.000,0.200,16739.000,0.300,2485.000,0.500,117.000,1.000,67.000,5.000,0
"07/10/06","08:00:14","AMMA06",40881.000,"cc",28277.109,6.00,2827.711,1,6,0.100,21494.000,0.200,16582.000,0.300,2649.000,0.500,107.000,1.000,49.000,5.000,0
"07/10/06","08:00:20","AMMA06",41046.000,"cc",28285.414,6.00,2828.542,1,6,0.100,21265.000,0.200,16946.000,0.300,2659.000,0.500,112.000,1.000,64.000,5.000,0
"07/10/06","08:00:26","AMMA06",41048.000,"cc",28337.809,6.00,2833.781,1,6,0.100,21261.000,0.200,16794.000,0.300,2786.000,0.500,147.000,1.000,60.000,5.000,0
"07/10/06","08:00:32","AMMA06",40870.000,"cc",28348.512,6.00,2834.851,1,6,0.100,21390.000,0.200,16622.000,0.300,2682.000,0.500,119.000,1.000,57.000,5.000,0
"07/10/06","08:00:38","AMMA06",40842.000,"cc",28333.051,6.00,2833.305,1,6,0.100,21294.000,0.200,16648.000,0.300,2719.000,0.500,126.000,1.000,55.000,5.000,0
"07/10/06","08:00:44","AMMA06",41104.000,"cc",28334.803,6.00,2833.481,1,6,0.100,21270.000,0.200,16879.000,0.300,2773.000,0.500,128.000,1.000,54.000,5.000,0
"07/10/06","08:00:50","AMMA06",41631.000,"cc",28315.277,6.00,2831.528,1,6,0.100,21642.000,0.200,16925.000,0.300,2857.000,0.500,149.000,1.000,58.000,5.000,0
"07/10/06","08:00:56","AMMA06",41797.000,"cc",28333.125,6.00,2833.313,1,6,0.100,21625.000,0.200,17167.000,0.300,2829.000,0.500,119.000,1.000,57.000,5.000,0
"07/10/06","08:01:02","AMMA06",42326.000,"cc",28294.971,6.00,2829.497,1,6,0.100,21774.000,0.200,17500.000,0.300,2897.000,0.500,108.000,1.000,47.000,5.000,0
"07/10/06","08:01:08","AMMA06",42319.000,"cc",28283.852,6.00,2828.385,1,6,0.100,22069.000,0.200,17150.000,0.300,2927.000,0.500,116.000,1.000,57.000,5.000,0
"07/10/06","08:01:14","AMMA06",42135.000,"cc",28343.418,6.00,2834.342,1,6,0.100,21910.000,0.200,17183.000,0.300,2892.000,0.500,99.000,1.000,51.000,5.000,0
"07/10/06","08:01:20","AMMA06",42441.000,"cc",28319.451,6.00,2831.945,1,6,0.100,22214.000,0.200,17198.000,0.300,2844.000,0.500,125.000,1.000,60.000,5.000,0
"07/10/06","08:01:26","AMMA06",42158.000,"cc",28337.408,6.00,2833.741,1,6,0.100,22007.000,0.200,17113.000,0.300,2850.000,0.500,124.000,1.000,64.000,5.000,0
"07/10/06","08:01:32","AMMA06",41902.000,"cc",28282.703,6.00,2828.271,1,6,0.100,21897.000,0.200,17055.000,0.300,2776.000,0.500,111.000,1.000,63.000,5.000,0
"07/10/06","08:01:38","AMMA06",41580.000,"cc",28346.602,6.00,2834.660,1,6,0.100,21655.000,0.200,17034.000,0.300,2753.000,0.500,92.000,1.000,46.000,5.000,0
"07/10/06","08:01:44","AMMA06",41205.000,"cc",28324.205,6.00,2832.421,1,6,0.100,21568.000,0.200,16629.000,0.300,2829.000,0.500,128.000,1.000,51.000,5.000,0
"07/10/06","08:01:50","AMMA06",42191.000,"cc",28300.543,6.00,2830.054,1,6,0.100,21995.000,0.200,17259.000,0.300,2774.000,0.500,109.000,1.000,54.000,5.000,0
"07/10/06","08:01:56","AMMA06",42253.000,"cc",28348.678,6.00,2834.868,1,6,0.100,22191.000,0.200,17122.000,0.300,2739.000,0.500,147.000,1.000,54.000,5.000,0
"07/10/06","08:02:02","AMMA06",42425.000,"cc",28320.356,6.00,2832.036,1,6,0.100,22269.000,0.200,17228.000,0.300,2753.000,0.500,135.000,1.000,40.000,5.000,0
"07/10/06","08:02:08","AMMA06",42479.000,"cc",28278.344,6.00,2827.835,1,6,0.100,22592.000,0.200,17005.000,0.300,2710.000,0.500,113.000,1.000,59.000,5.000,0
"07/10/06","08:02:14","AMMA06",42309.000,"cc",28324.674,6.00,2832.468,1,6,0.100,22460.000,0.200,16948.000,0.300,2733.000,0.500,125.000,1.000,43.000,5.000,0
"07/10/06","08:02:20","AMMA06",42212.000,"cc",28329.414,6.00,2832.942,1,6,0.100,22239.000,0.200,17107.000,0.300,2698.000,0.500,111.000,1.000,57.000,5.000,0
"07/10/06","08:02:26","AMMA06",41960.000,"cc",28261.645,6.00,2826.165,1,6,0.100,22199.000,0.200,16945.000,0.300,2664.000,0.500,103.000,1.000,49.000,5.000,0
"07/10/06","08:02:32","AMMA06",42810.000,"cc",28317.020,6.00,2831.702,1,6,0.100,22749.000,0.200,17122.000,0.300,2788.000,0.500,109.000,1.000,42.000,5.000,0
"07/10/06","08:02:38","AMMA06",42499.000,"cc",28367.410,6.00,2836.741,1,6,0.100,22620.000,0.200,17004.000,0.300,2695.000,0.500,130.000,1.000,50.000,5.000,0
"07/10/06","08:02:44","AMMA06",42688.000,"cc",28343.852,6.00,2834.385,1,6,0.100,22457.000,0.200,17246.000,0.300,2820.000,0.500,124.000,1.000,41.000,5.000,0
"07/10/06","08:02:50","AMMA06",42340.000,"cc",28242.744,6.00,2824.275,1,6,0.100,22688.000,0.200,16861.000,0.300,2629.000,0.500,110.000,1.000,52.000,5.000,0
"07/10/06","08:02:56","AMMA06",42284.000,"cc",28298.119,6.00,2829.812,1,6,0.100,22574.000,0.200,16900.000,0.300,2646.000,0.500,112.000,1.000,52.000,5.000,0
"07/10/06","08:03:02","AMMA06",42743.000,"cc",28333.690,6.00,2833.369,1,6,0.100,22964.000,0.200,16979.000,0.300,2627.000,0.500,120.000,1.000,53.000,5.000,0
"07/10/06","08:03:08","AMMA06",42854.000,"cc",28345.498,6.00,2834.550,1,6,0.100,22862.000,0.200,17117.000,0.300,2690.000,0.500,120.000,1.000,65.000,5.000,0
"07/10/06","08:03:14","AMMA06",42440.000,"cc",28330.469,6.00,2833.047,1,6,0.100,22790.000,0.200,16920.000,0.300,2543.000,0.500,122.000,1.000,65.000,5.000,0
"07/10/06","08:03:20","AMMA06",42614.000,"cc",28302.191,6.00,2830.219,1,6,0.100,23072.000,0.200,16708.000,0.300,2632.000,0.500,149.000,1.000,53.000,5.000,0
"07/10/06","08:03:26","AMMA06",42431.000,"cc",28311.668,6.00,2831.167,1,6,0.100,22748.000,0.200,16984.000,0.300,2508.000,0.500,130.000,1.000,61.000,5.000,0
"07/10/06","08:03:32","AMMA06",43068.000,"cc",28339.020,6.00,2833.902,1,6,0.100,23124.000,0.200,17096.000,0.300,2681.000,0.500,109.000,1.000,58.000,5.000,0
"07/10/06","08:03:38","AMMA06",42377.000,"cc",28296.504,6.00,2829.651,1,6,0.100,22963.000,0.200,16650.000,0.300,2581.000,0.500,130.000,1.000,53.000,5.000,0
"07/10/06","08:03:44","AMMA06",42441.000,"cc",28282.051,6.00,2828.205,1,6,0.100,23013.000,0.200,16690.000,0.300,2577.000,0.500,117.000,1.000,44.000,5.000,0
"07/10/06","08:03:50","AMMA06",42789.000,"cc",28363.152,6.00,2836.315,1,6,0.100,23057.000,0.200,16928.000,0.300,2654.000,0.500,120.000,1.000,30.000,5.000,0
"07/10/06","08:03:56","AMMA06",43074.000,"cc",28301.520,6.00,2830.152,1,6,0.100,23352.000,0.200,16942.000,0.300,2621.000,0.500,116.000,1.000,43.000,5.000,0
"07/10/06","08:04:02","AMMA06",42657.000,"cc",28312.148,6.00,2831.215,1,6,0.100,22885.000,0.200,16990.000,0.300,2626.000,0.500,105.000,1.000,51.000,5.000,0
"07/10/06","08:04:08","AMMA06",42584.000,"cc",28285.172,6.00,2828.517,1,6,0.100,23044.000,0.200,16704.000,0.300,2670.000,0.500,119.000,1.000,47.000,5.000,0
"07/10/06","08:04:14","AMMA06",42441.000,"cc",28349.838,6.00,2834.984,1,6,0.100,22865.000,0.200,16833.000,0.300,2551.000,0.500,131.000,1.000,61.000,5.000,0
"07/10/06","08:04:20","AMMA06",42615.000,"cc",28336.783,6.00,2833.679,1,6,0.100,22928.000,0.200,16919.000,0.300,2606.000,0.500,110.000,1.000,52.000,5.000,0
"07/10/06","08:04:26","AMMA06",42654.000,"cc",28259.451,6.00,2825.945,1,6,0.100,22948.000,0.200,16932.000,0.300,2628.000,0.500,104.000,1.000,42.000,5.000,0
"07/10/06","08:04:32","AMMA06",42681.000,"cc",28346.629,6.00,2834.663,1,6,0.100,23151.000,0.200,16749.000,0.300,2598.000,0.500,123.000,1.000,60.000,5.000,0
"07/10/06","08:04:38","AMMA06",42598.000,"cc",28285.789,6.00,2828.579,1,6,0.100,22852.000,0.200,17010.000,0.300,2553.000,0.500,127.000,1.000,56.000,5.000,0
"07/10/06","08:04:44","AMMA06",42690.000,"cc",28346.260,6.00,2834.626,1,6,0.100,22971.000,0.200,16934.000,0.300,2609.000,0.500,120.000,1.000,56.000,5.000,0
"07/10/06","08:04:50","AMMA06",43011.000,"cc",28356.127,6.00,2835.613,1,6,0.100,23277.000,0.200,16890.000,0.300,2684.000,0.500,112.000,1.000,48.000,5.000,0
"07/10/06","08:04:56","AMMA06",43451.000,"cc",28313.389,6.00,2831.339,1,6,0.100,23472.000,0.200,17168.000,0.300,2652.000,0.500,110.000,1.000,49.000,5.000,0
"07/10/06","08:05:02","AMMA06",43030.000,"cc",28274.076,6.00,2827.408,1,6,0.100,23356.000,0.200,16939.000,0.300,2587.000,0.500,109.000,1.000,39.000,5.000,0
"07/10/06","08:05:08","AMMA06",43112.000,"cc",28345.869,6.00,2834.587,1,6,0.100,23328.000,0.200,17027.000,0.300,2583.000,0.500,126.000,1.000,48.000,5.000,0
"07/10/06","08:05:14","AMMA06",43365.000,"cc",28296.238,6.00,2829.624,1,6,0.100,23580.000,0.200,16994.000,0.300,2630.000,0.500,120.000,1.000,41.000,5.000,0
"07/10/06","08:05:20","AMMA06",43101.000,"cc",28342.440,6.00,2834.244,1,6,0.100,23158.000,0.200,17192.000,0.300,2598.000,0.500,109.000,1.000,44.000,5.000,0
"07/10/06","08:05:26","AMMA06",43189.000,"cc",28318.900,6.00,2831.890,1,6,0.100,23370.000,0.200,16980.000,0.300,2654.000,0.500,134.000,1.000,51.000,5.000,0
"07/10/06","08:05:32","AMMA06",43435.000,"cc",28338.109,6.00,2833.811,1,6,0.100,23537.000,0.200,17082.000,0.300,2671.000,0.500,108.000,1.000,37.000,5.000,0
"07/10/06","08:05:38","AMMA06",43132.000,"cc",28298.119,6.00,2829.812,1,6,0.100,23173.000,0.200,17091.000,0.300,2717.000,0.500,106.000,1.000,45.000,5.000,0
"07/10/06","08:05:44","AMMA06",42879.000,"cc",28323.838,6.00,2832.384,1,6,0.100,22738.000,0.200,17235.000,0.300,2729.000,0.500,128.000,1.000,49.000,5.000,0
"07/10/06","08:05:50","AMMA06",43107.000,"cc",28336.258,6.00,2833.626,1,6,0.100,23096.000,0.200,17091.000,0.300,2758.000,0.500,112.000,1.000,50.000,5.000,0
"07/10/06","08:05:56","AMMA06",43396.000,"cc",28272.908,6.00,2827.291,1,6,0.100,23109.000,0.200,17425.000,0.300,2686.000,0.500,122.000,1.000,54.000,5.000,0
"07/10/06","08:06:02","AMMA06",43419.000,"cc",28319.994,6.00,2832.000,1,6,0.100,23173.000,0.200,17304.000,0.300,2774.000,0.500,124.000,1.000,44.000,5.000,0
"07/10/06","08:06:08","AMMA06",43655.000,"cc",28315.719,6.00,2831.572,1,6,0.100,23267.000,0.200,17357.000,0.300,2852.000,0.500,126.000,1.000,53.000,5.000,0
"07/10/06","08:06:14","AMMA06",44038.000,"cc",28328.758,6.00,2832.876,1,6,0.100,23486.000,0.200,17561.000,0.300,2797.000,0.500,138.000,1.000,56.000,5.000,0
"07/10/06","08:06:20","AMMA06",43607.000,"cc",28303.004,6.00,2830.301,1,6,0.100,23133.000,0.200,17429.000,0.300,2865.000,0.500,131.000,1.000,49.000,5.000,0
"07/10/06","08:06:26","AMMA06",43647.000,"cc",28290.924,6.00,2829.093,1,6,0.100,22961.000,0.200,17619.000,0.300,2894.000,0.500,125.000,1.000,48.000,5.000,0
"07/10/06","08:06:32","AMMA06",43565.000,"cc",28360.318,6.00,2836.032,1,6,0.100,23014.000,0.200,17447.000,0.300,2924.000,0.500,132.000,1.000,48.000,5.000,0
"07/10/06","08:06:38","AMMA06",43691.000,"cc",28307.602,6.00,2830.760,1,6,0.100,22824.000,0.200,17732.000,0.300,2925.000,0.500,146.000,1.000,64.000,5.000,0
"07/10/06","08:06:44","AMMA06",43684.000,"cc",28283.297,6.00,2828.330,1,6,0.100,22881.000,0.200,17648.000,0.300,2957.000,0.500,138.000,1.000,60.000,5.000,0
"07/10/06","08:06:50","AMMA06",43560.000,"cc",28349.527,6.00,2834.953,1,6,0.100,22800.000,0.200,17680.000,0.300,2874.000,0.500,143.000,1.000,63.000,5.000,0
"07/10/06","08:06:56","AMMA06",43500.000,"cc",28343.891,6.00,2834.389,1,6,0.100,22777.000,0.200,17717.000,0.300,2838.000,0.500,119.000,1.000,49.000,5.000,0
"07/10/06","08:07:02","AMMA06",43560.000,"cc",28314.898,6.00,2831.490,1,6,0.100,22744.000,0.200,17649.000,0.300,2982.000,0.500,122.000,1.000,63.000,5.000,0
"07/10/06","08:07:08","AMMA06",43503.000,"cc",28314.525,6.00,2831.453,1,6,0.100,22722.000,0.200,17839.000,0.300,2753.000,0.500,126.000,1.000,63.000,5.000,0
"07/10/06","08:07:14","AMMA06",43272.000,"cc",28299.674,6.00,2829.968,1,6,0.100,22860.000,0.200,17388.000,0.300,2835.000,0.500,135.000,1.000,54.000,5.000,0
"07/10/06","08:07:20","AMMA06",43543.000,"cc",28348.826,6.00,2834.883,1,6,0.100,23045.000,0.200,17497.000,0.300,2840.000,0.500,111.000,1.000,50.000,5.000,0
"07/10/06","08:07:26","AMMA06",43409.000,"cc",28282.270,6.00,2828.227,1,6,0.100,22998.000,0.200,17441.000,0.300,2792.000,0.500,121.000,1.000,57.000,5.000,0
"07/10/06","08:07:32","AMMA06",43717.000,"cc",28368.320,6.00,2836.832,1,6,0.100,23131.000,0.200,17560.000,0.300,2853.000,0.500,129.000,1.000,44.000,5.000,0
"07/10/06","08:07:38","AMMA06",43660.000,"cc",28301.043,6.00,2830.105,1,6,0.100,23218.000,0.200,17444.000,0.300,2844.000,0.500,107.000,1.000,47.000,5.000,0
"07/10/06","08:07:44","AMMA06",43371.000,"cc",28298.565,6.00,2829.857,1,6,0.100,22991.000,0.200,17353.000,0.300,2837.000,0.500,127.000,1.000,63.000,5.000,0
"07/10/06","08:07:50","AMMA06",43691.000,"cc",28310.106,6.00,2831.011,1,6,0.100,23028.000,0.200,17666.000,0.300,2820.000,0.500,120.000,1.000,57.000,5.000,0
"07/10/06","08:07:56","AMMA06",43615.000,"cc",28301.041,6.00,2830.104,1,6,0.100,23052.000,0.200,17611.000,0.300,2762.000,0.500,129.000,1.000,61.000,5.000,0
"07/10/06","08:08:02","AMMA06",43744.000,"cc",28339.482,6.00,2833.949,1,6,0.100,23217.000,0.200,17513.000,0.300,2829.000,0.500,141.000,1.000,44.000,5.000,0
"07/10/06","08:08:08","AMMA06",43196.000,"cc",28306.283,6.00,2830.628,1,6,0.100,23066.000,0.200,17174.000,0.300,2766.000,0.500,144.000,1.000,46.000,5.000,0
"07/10/06","08:08:14","AMMA06",43819.000,"cc",28307.693,6.00,2830.770,1,6,0.100,23389.000,0.200,17500.000,0.300,2761.000,0.500,118.000,1.000,51.000,5.000,0
"07/10/06","08:08:20","AMMA06",43713.000,"cc",28335.219,6.00,2833.522,1,6,0.100,23275.000,0.200,17373.000,0.300,2867.000,0.500,136.000,1.000,62.000,5.000,0
"07/10/06","08:08:26","AMMA06",43897.000,"cc",28333.701,6.00,2833.370,1,6,0.100,23579.000,0.200,17384.000,0.300,2738.000,0.500,135.000,1.000,61.000,5.000,0
"07/10/06","08:08:32","AMMA06",43400.000,"cc",28314.010,6.00,2831.401,1,6,0.100,23316.000,0.200,17315.000,0.300,2581.000,0.500,126.000,1.000,62.000,5.000,0
"07/10/06","08:08:38","AMMA06",43613.000,"cc",28319.674,6.00,2831.968,1,6,0.100,23552.000,0.200,17168.000,0.300,2725.000,0.500,117.000,1.000,51.000,5.000,0
"07/10/06","08:08:44","AMMA06",44432.000,"cc",28287.006,6.00,2828.701,1,6,0.100,23925.000,0.200,17592.000,0.300,2759.000,0.500,114.000,1.000,42.000,5.000,0
"07/10/06","08:08:50","AMMA06",43887.000,"cc",28304.215,6.00,2830.422,1,6,0.100,23695.000,0.200,17396.000,0.300,2613.000,0.500,142.000,1.000,41.000,5.000,0
"07/10/06","08:08:56","AMMA06",44341.000,"cc",28347.596,6.00,2834.760,1,6,0.100,23933.000,0.200,17486.000,0.300,2772.000,0.500,102.000,1.000,48.000,5.000,0
"07/10/06","08:09:02","AMMA06",44287.000,"cc",28275.928,6.00,2827.593,1,6,0.100,23764.000,0.200,17626.000,0.300,2714.000,0.500,127.000,1.000,56.000,5.000,0
"07/10/06","08:09:08","AMMA06",44485.000,"cc",28343.484,6.00,2834.349,1,6,0.100,24171.000,0.200,17479.000,0.300,2644.000,0.500,128.000,1.000,63.000,5.000,0
"07/10/06","08:09:14","AMMA06",44160.000,"cc",28251.648,6.00,2825.165,1,6,0.100,24038.000,0.200,17362.000,0.300,2605.000,0.500,105.000,1.000,50.000,5.000,0
"07/10/06","08:09:20","AMMA06",44367.000,"cc",28317.357,6.00,2831.736,1,6,0.100,24130.000,0.200,17419.000,0.300,2668.000,0.500,104.000,1.000,46.000,5.000,0
"07/10/06","08:09:26","AMMA06",44413.000,"cc",28337.152,6.00,2833.715,1,6,0.100,24275.000,0.200,17218.000,0.300,2744.000,0.500,114.000,1.000,62.000,5.000,0
"07/10/06","08:09:32","AMMA06",44307.000,"cc",28379.506,6.00,2837.951,1,6,0.100,24226.000,0.200,17218.000,0.300,2692.000,0.500,119.000,1.000,52.000,5.000,0
"07/10/06","08:09:38","AMMA06",44362.000,"cc",28280.338,6.00,2828.034,1,6,0.100,24341.000,0.200,17112.000,0.300,2721.000,0.500,133.000,1.000,55.000,5.000,0
"07/10/06","08:09:44","AMMA06",44190.000,"cc",28328.080,6.00,2832.808,1,6,0.100,24026.000,0.200,17373.000,0.300,2609.000,0.500,127.000,1.000,55.000,5.000,0
"07/10/06","08:09:50","AMMA06",44530.000,"cc",28319.227,6.00,2831.923,1,6,0.100,24397.000,0.200,17373.000,0.300,2607.000,0.500,110.000,1.000,43.000,5.000,0
"07/10/06","08:09:56","AMMA06",44488.000,"cc",28345.566,6.00,2834.557,1,6,0.100,24123.000,0.200,17482.000,0.300,2721.000,0.500,116.000,1.000,46.000,5.000,0
"07/10/06","08:10:02","AMMA06",44567.000,"cc",28312.621,6.00,2831.262,1,6,0.100,24238.000,0.200,17431.000,0.300,2740.000,0.500,103.000,1.000,55.000,5.000,0
"07/10/06","08:10:08","AMMA06",43888.000,"cc",28323.023,6.00,2832.303,1,6,0.100,24166.000,0.200,17034.000,0.300,2530.000,0.500,109.000,1.000,49.000,5.000,0
"07/10/06","08:10:14","AMMA06",44132.000,"cc",28277.695,6.00,2827.770,1,6,0.100,24135.000,0.200,17229.000,0.300,2594.000,0.500,130.000,1.000,44.000,5.000,0
"07/10/06","08:10:20","AMMA06",44693.000,"cc",28310.875,6.00,2831.088,1,6,0.100,24478.000,0.200,17336.000,0.300,2701.000,0.500,132.000,1.000,46.000,5.000,0
"07/10/06","08:10:26","AMMA06",44221.000,"cc",28323.076,6.00,2832.308,1,6,0.100,24430.000,0.200,17007.000,0.300,2603.000,0.500,122.000,1.000,59.000,5.000,0
"07/10/06","08:10:32","AMMA06",44526.000,"cc",28345.293,6.00,2834.530,1,6,0.100,24450.000,0.200,17273.000,0.300,2643.000,0.500,118.000,1.000,42.000,5.000,0
"07/10/06","08:10:38","AMMA06",44115.000,"cc",28334.385,6.00,2833.439,1,6,0.100,24042.000,0.200,17261.000,0.300,2638.000,0.500,126.000,1.000,48.000,5.000,0
"07/10/06","08:10:44","AMMA06",43954.000,"cc",28285.951,6.00,2828.595,1,6,0.100,24136.000,0.200,17138.000,0.300,2517.000,0.500,110.000,1.000,53.000,5.000,0
"07/10/06","08:10:50","AMMA06",43785.000,"cc",28265.117,6.00,2826.512,1,6,0.100,23800.000,0.200,17243.000,0.300,2562.000,0.500,125.000,1.000,55.000,5.000,0
"07/10/06","08:10:56","AMMA06",44903.000,"cc",28299.404,6.00,2829.941,1,6,0.100,24595.000,0.200,17494.000,0.300,2659.000,0.500,112.000,1.000,43.000,5.000,0
"07/10/06","08:11:02","AMMA06",44416.000,"cc",28334.234,6.00,2833.424,1,6,0.100,24303.000,0.200,17362.000,0.300,2574.000,0.500,133.000,1.000,44.000,5.000,0
"07/10/06","08:11:08","AMMA06",44410.000,"cc",28366.150,6.00,2836.615,1,6,0.100,24264.000,0.200,17340.000,0.300,2655.000,0.500,103.000,1.000,48.000,5.000,0
"07/10/06","08:11:14","AMMA06",45146.000,"cc",28294.170,6.00,2829.417,1,6,0.100,24682.000,0.200,17659.000,0.300,2638.000,0.500,125.000,1.000,42.000,5.000,0
"07/10/06","08:11:20","AMMA06",44667.000,"cc",28307.477,6.00,2830.748,1,6,0.100,24465.000,0.200,17282.000,0.300,2763.000,0.500,99.000,1.000,58.000,5.000,0
"07/10/06","08:11:26","AMMA06",44957.000,"cc",28324.824,6.00,2832.483,1,6,0.100,24508.000,0.200,17544.000,0.300,2711.000,0.500,139.000,1.000,55.000,5.000,0
"07/10/06","08:11:32","AMMA06",45119.000,"cc",28305.400,6.00,2830.540,1,6,0.100,24474.000,0.200,17808.000,0.300,2657.000,0.500,128.000,1.000,52.000,5.000,0
"07/10/06","08:11:38","AMMA06",45302.000,"cc",28338.652,6.00,2833.866,1,6,0.100,24692.000,0.200,17718.000,0.300,2725.000,0.500,133.000,1.000,34.000,5.000,0
"07/10/06","08:11:44","AMMA06",44984.000,"cc",28367.232,6.00,2836.723,1,6,0.100,24229.000,0.200,17755.000,0.300,2840.000,0.500,108.000,1.000,52.000,5.000,0
"07/10/06","08:11:50","AMMA06",44939.000,"cc",28296.244,6.00,2829.625,1,6,0.100,24145.000,0.200,17850.000,0.300,2785.000,0.500,116.000,1.000,43.000,5.000,0
"07/10/06","08:11:56","AMMA06",44636.000,"cc",28284.020,6.00,2828.402,1,6,0.100,24022.000,0.200,17724.000,0.300,2704.000,0.500,141.000,1.000,45.000,5.000,0
"07/10/06","08:12:02","AMMA06",45142.000,"cc",28328.291,6.00,2832.829,1,6,0.100,24520.000,0.200,17727.000,0.300,2735.000,0.500,111.000,1.000,49.000,5.000,0
"07/10/06","08:12:08","AMMA06",45076.000,"cc",28290.113,6.00,2829.012,1,6,0.100,24235.000,0.200,17826.000,0.300,2831.000,0.500,138.000,1.000,46.000,5.000,0
"07/10/06","08:12:14","AMMA06",45022.000,"cc",28386.668,6.00,2838.667,1,6,0.100,24345.000,0.200,17717.000,0.300,2792.000,0.500,116.000,1.000,52.000,5.000,0
"07/10/06","08:12:20","AMMA06",44397.000,"cc",28317.520,6.00,2831.752,1,6,0.100,23973.000,0.200,17529.000,0.300,2731.000,0.500,112.000,1.000,52.000,5.000,0
"07/10/06","08:12:26","AMMA06",44831.000,"cc",28329.986,6.00,2832.999,1,6,0.100,23920.000,0.200,17916.000,0.300,2832.000,0.500,112.000,1.000,51.000,5.000,0
"07/10/06","08:12:32","AMMA06",44537.000,"cc",28299.736,6.00,2829.974,1,6,0.100,23900.000,0.200,17610.000,0.300,2849.000,0.500,130.000,1.000,48.000,5.000,0
"07/10/06","08:12:38","AMMA06",45072.000,"cc",28306.469,6.00,2830.647,1,6,0.100,24197.000,0.200,17829.000,0.300,2881.000,0.500,120.000,1.000,45.000,5.000,0
"07/10/06","08:12:44","AMMA06",45027.000,"cc",28312.045,6.00,2831.205,1,6,0.100,24060.000,0.200,17953.000,0.300,2870.000,0.500,114.000,1.000,30.000,5.000,0
"07/10/06","08:12:50","AMMA06",44788.000,"cc",28284.541,6.00,2828.454,1,6,0.100,23880.000,0.200,17863.000,0.300,2881.000,0.500,118.000,1.000,46.000,5.000,0
"07/10/06","08:12:56","AMMA06",44785.000,"cc",28303.170,6.00,2830.317,1,6,0.100,23907.000,0.200,17865.000,0.300,2829.000,0.500,139.000,1.000,45.000,5.000,0
"07/10/06","08:13:02","AMMA06",44324.000,"cc",28339.549,6.00,2833.955,1,6,0.100,23729.000,0.200,17568.000,0.300,2846.000,0.500,132.000,1.000,49.000,5.000,0
"07/10/06","08:13:08","AMMA06",44822.000,"cc",28343.096,6.00,2834.310,1,6,0.100,24051.000,0.200,17795.000,0.300,2807.000,0.500,128.000,1.000,41.000,5.000,0
"07/10/06","08:13:14","AMMA06",44526.000,"cc",28342.303,6.00,2834.231,1,6,0.100,23912.000,0.200,17563.000,0.300,2854.000,0.500,136.000,1.000,61.000,5.000,0
"07/10/06","08:13:20","AMMA06",44613.000,"cc",28249.967,6.00,2824.997,1,6,0.100,24111.000,0.200,17542.000,0.300,2800.000,0.500,111.000,1.000,49.000,5.000,0
"07/10/06","08:13:26","AMMA06",44619.000,"cc",28332.783,6.00,2833.279,1,6,0.100,24161.000,0.200,17524.000,0.300,2769.000,0.500,107.000,1.000,58.000,5.000,0
"07/10/06","08:13:32","AMMA06",44334.000,"cc",28337.713,6.00,2833.772,1,6,0.100,23925.000,0.200,17537.000,0.300,2742.000,0.500,88.000,1.000,42.000,5.000,0
"07/10/06","08:13:38","AMMA06",44457.000,"cc",28300.102,6.00,2830.010,1,6,0.100,23921.000,0.200,17775.000,0.300,2599.000,0.500,127.000,1.000,35.000,5.000,0
"07/10/06","08:13:44","AMMA06",44231.000,"cc",28267.592,6.00,2826.759,1,6,0.100,23660.000,0.200,17529.000,0.300,2849.000,0.500,135.000,1.000,58.000,5.000,0
"07/10/06","08:13:50","AMMA06",44520.000,"cc",28334.158,6.00,2833.416,1,6,0.100,23924.000,0.200,17614.000,0.300,2791.000,0.500,142.000,1.000,49.000,5.000,0
"07/10/06","08:13:56","AMMA06",44577.000,"cc",28345.426,6.00,2834.543,1,6,0.100,23986.000,0.200,17673.000,0.300,2753.000,0.500,118.000,1.000,47.000,5.000,0
"07/10/06","08:14:02","AMMA06",44640.000,"cc",28330.356,6.00,2833.036,1,6,0.100,23908.000,0.200,17712.000,0.300,2850.000,0.500,118.000,1.000,52.000,5.000,0
"07/10/06","08:14:08","AMMA06",44472.000,"cc",28317.445,6.00,2831.745,1,6,0.100,23894.000,0.200,17778.000,0.300,2639.000,0.500,110.000,1.000,51.000,5.000,0
"07/10/06","08:14:14","AMMA06",43875.000,"cc",28292.725,6.00,2829.273,1,6,0.100,23561.000,0.200,17383.000,0.300,2758.000,0.500,116.000,1.000,57.000,5.000,0
"07/10/06","08:14:20","AMMA06",44204.000,"cc",28269.311,6.00,2826.931,1,6,0.100,24030.000,0.200,17231.000,0.300,2789.000,0.500,119.000,1.000,35.000,5.000,0